Location: Monrovia
(34.7865°N, 86.7139°W)
Time: 00:50:33
(UTC+00:00)

ATLAS 5 CENTAUR R/B - Pass Details

Date: 14 July 2020
Orbit: 534 x 1124 km, 63.4° (Epoch: 06 August)

Event Time Altitude Azimuth Distance (km) Brightness Sun altitude
Rises 10:08:44 0° 317° (NW) 3,487 5.3 -7.2°
Reaches altitude 10° 10:11:20 10° 308° (NW) 2,634 4.6 -6.7°
Maximum altitude 10:16:50 33° 246° (WSW) 1,625 3.2 -5.8°
Drops below altitude 10° 10:22:55 10° 185° (S) 2,916 4.7 -4.7°
Sets 10:25:58 0° 177° (S) 3,912 5.4 -4.2°
